Time,TemperatureF,DewpointF,PressureIn,WindDirection,WindDirectionDegrees,WindSpeedMPH,WindSpeedGustMPH,Humidity,HourlyPrecipIn,Conditions,Clouds,dailyrainin,SoftwareType,DateUTC
2013-03-14 00:00:00,26.4,20.5,24.27,WSW,248,0.0,0.0,78,0.00,,SKC,0.02,VWS V14.01,2013-03-14 04:00:00,
2013-03-14 00:05:00,26.4,20.5,24.28,WSW,248,0.0,0.0,78,0.00,,SKC,0.00,VWS V14.01,2013-03-14 04:05:00,
2013-03-14 00:10:00,26.4,20.5,24.28,WNW,296,1.0,4.0,78,0.00,,SKC,0.00,VWS V14.01,2013-03-14 04:10:00,
2013-03-14 00:15:00,26.5,20.3,24.30,WNW,296,0.0,1.0,77,0.00,,SKC,0.00,VWS V14.01,2013-03-14 04:15:00,
2013-03-14 00:20:00,26.6,20.4,24.28,WNW,299,3.0,3.0,77,0.00,,SKC,0.00,VWS V14.01,2013-03-14 04:20:00,
2013-03-14 00:25:00,26.6,20.4,24.28,WNW,299,0.0,0.0,77,0.00,,SKC,0.00,VWS V14.01,2013-03-14 04:25:00,
2013-03-14 00:30:00,26.6,20.4,24.27,WNW,299,0.0,0.0,77,0.00,,SKC,0.00,VWS V14.01,2013-03-14 04:30:00,
2013-03-14 00:35:00,26.5,20.3,24.28,WNW,299,0.0,0.0,77,0.00,,SKC,0.00,VWS V14.01,2013-03-14 04:35:00,
2013-03-14 00:40:00,26.5,20.3,24.27,WNW,299,0.0,2.0,77,0.00,,SKC,0.00,VWS V14.01,2013-03-14 04:40:00,
2013-03-14 00:45:00,26.5,20.3,24.27,WSW,245,0.0,2.0,77,0.00,,SKC,0.00,VWS V14.01,2013-03-14 04:45:00,
2013-03-14 00:50:00,26.3,20.1,24.27,WSW,248,0.0,3.0,77,0.00,,SKC,0.00,VWS V14.01,2013-03-14 04:50:00,
2013-03-14 00:55:00,26.2,20.0,24.27,WSW,248,0.0,0.0,77,0.00,,SKC,0.00,VWS V14.01,2013-03-14 04:55:00,
2013-03-14 01:00:00,26.0,20.1,24.28,WSW,248,0.0,0.0,78,0.00,,SKC,0.00,VWS V14.01,2013-03-14 05:00:00,
2013-03-14 01:05:00,25.7,19.8,24.27,WSW,248,0.0,0.0,78,0.00,,SKC,0.00,VWS V14.01,2013-03-14 05:05:00,
2013-03-14 01:10:00,25.5,19.6,24.27,WSW,248,0.0,0.0,78,0.00,,SKC,0.00,VWS V14.01,2013-03-14 05:10:00,
2013-03-14 01:15:00,25.3,19.7,24.28,WSW,248,0.0,0.0,79,0.00,,SKC,0.00,VWS V14.01,2013-03-14 05:15:00,
2013-03-14 01:20:00,25.2,19.6,24.26,WSW,248,0.0,1.0,79,0.00,,SKC,0.00,VWS V14.01,2013-03-14 05:20:00,
2013-03-14 01:25:00,25.1,19.5,24.30,WSW,248,0.0,0.0,79,0.00,,SKC,0.00,VWS V14.01,2013-03-14 05:25:00,
2013-03-14 01:30:00,24.9,19.3,24.27,WSW,248,0.0,0.0,79,0.00,,SKC,0.00,VWS V14.01,2013-03-14 05:30:00,
2013-03-14 01:35:00,24.7,19.4,24.28,WSW,248,0.0,0.0,80,0.00,,SKC,0.00,VWS V14.01,2013-03-14 05:35:00,
2013-03-14 01:40:00,24.5,19.2,24.28,WSW,248,0.0,0.0,80,0.00,,SKC,0.00,VWS V14.01,2013-03-14 05:40:00,
2013-03-14 01:45:00,24.4,19.4,24.28,WSW,248,0.0,0.0,81,0.00,,SKC,0.00,VWS V14.01,2013-03-14 05:45:00,
2013-03-14 01:50:00,24.5,19.2,24.29,WSW,248,0.0,0.0,80,0.00,,SKC,0.00,VWS V14.01,2013-03-14 05:50:00,
2013-03-14 01:55:00,24.5,19.2,24.29,WSW,248,0.0,0.0,80,0.00,,SKC,0.00,VWS V14.01,2013-03-14 05:55:00,
2013-03-14 02:00:00,24.4,19.1,24.29,WSW,248,0.0,0.0,80,0.00,,SKC,0.00,VWS V14.01,2013-03-14 06:00:00,
2013-03-14 02:05:00,24.2,19.2,24.32,WSW,248,0.0,0.0,81,0.00,,SKC,0.00,VWS V14.01,2013-03-14 06:05:00,
2013-03-14 02:10:00,24.1,19.1,24.27,WSW,248,0.0,0.0,81,0.00,,SKC,0.00,VWS V14.01,2013-03-14 06:10:00,
2013-03-14 02:15:00,24.1,19.1,24.28,WSW,248,0.0,0.0,81,0.00,,SKC,0.00,VWS V14.01,2013-03-14 06:15:00,
2013-03-14 02:20:00,24.0,19.3,24.30,WSW,248,0.0,0.0,82,0.00,,SKC,0.00,VWS V14.01,2013-03-14 06:20:00,
2013-03-14 02:25:00,23.9,19.2,24.32,WSW,248,0.0,0.0,82,0.00,,SKC,0.00,VWS V14.01,2013-03-14 06:25:00,
2013-03-14 02:30:00,23.8,19.1,24.30,WSW,248,0.0,0.0,82,0.00,,SKC,0.00,VWS V14.01,2013-03-14 06:30:00,
2013-03-14 02:35:00,23.6,19.2,24.31,WSW,248,0.0,0.0,83,0.00,,SKC,0.00,VWS V14.01,2013-03-14 06:35:00,
2013-03-14 02:40:00,23.5,19.1,24.30,WSW,248,0.0,0.0,83,0.00,,SKC,0.00,VWS V14.01,2013-03-14 06:40:00,
2013-03-14 02:45:00,23.4,19.0,24.30,WSW,248,0.0,0.0,83,0.00,,SKC,0.00,VWS V14.01,2013-03-14 06:45:00,
2013-03-14 02:50:00,23.3,18.9,24.32,WSW,248,0.0,0.0,83,0.00,,SKC,0.00,VWS V14.01,2013-03-14 06:50:00,
2013-03-14 02:55:00,23.3,19.2,24.30,WSW,248,0.0,0.0,84,0.00,,SKC,0.00,VWS V14.01,2013-03-14 06:55:00,
2013-03-14 03:00:00,23.4,19.3,24.30,WSW,248,0.0,0.0,84,0.00,,SKC,0.00,VWS V14.01,2013-03-14 07:00:00,
2013-03-14 03:05:00,23.5,19.1,24.31,WSW,248,0.0,1.0,83,0.00,,SKC,0.00,VWS V14.01,2013-03-14 07:05:00,
2013-03-14 03:10:00,23.5,19.1,24.30,WSW,248,0.0,0.0,83,0.00,,SKC,0.00,VWS V14.01,2013-03-14 07:10:00,
2013-03-14 03:15:00,23.6,19.2,24.28,WSW,248,0.0,0.0,83,0.00,,SKC,0.00,VWS V14.01,2013-03-14 07:15:00,
2013-03-14 03:20:00,23.6,19.2,24.28,WSW,248,0.0,0.0,83,0.00,,SKC,0.00,VWS V14.01,2013-03-14 07:20:00,
2013-03-14 03:25:00,23.5,19.1,24.30,WSW,248,0.0,0.0,83,0.00,,SKC,0.00,VWS V14.01,2013-03-14 07:25:00,
2013-03-14 03:30:00,23.5,19.1,24.28,WSW,248,0.0,0.0,83,0.00,,SKC,0.00,VWS V14.01,2013-03-14 07:30:00,
2013-03-14 03:35:00,23.5,19.1,24.28,WSW,248,0.0,1.0,83,0.00,,SKC,0.00,VWS V14.01,2013-03-14 07:35:00,
2013-03-14 03:40:00,23.5,19.1,24.28,WSW,248,0.0,0.0,83,0.00,,SKC,0.00,VWS V14.01,2013-03-14 07:40:00,
2013-03-14 03:45:00,23.5,19.1,24.29,WSW,248,0.0,1.0,83,0.00,,SKC,0.00,VWS V14.01,2013-03-14 07:45:00,
2013-03-14 03:50:00,23.5,19.1,24.29,WSW,248,0.0,0.0,83,0.00,,SKC,0.00,VWS V14.01,2013-03-14 07:50:00,
2013-03-14 03:55:00,23.5,19.1,24.28,WSW,248,0.0,0.0,83,0.00,,SKC,0.00,VWS V14.01,2013-03-14 07:55:00,
2013-03-14 04:00:00,23.5,19.1,24.29,WSW,248,0.0,0.0,83,0.00,,SKC,0.00,VWS V14.01,2013-03-14 08:00:00,
2013-03-14 04:05:00,23.4,19.0,24.27,WSW,248,0.0,0.0,83,0.00,,SKC,0.00,VWS V14.01,2013-03-14 08:05:00,
2013-03-14 04:10:00,23.4,19.0,24.28,WSW,248,0.0,1.0,83,0.00,,SKC,0.00,VWS V14.01,2013-03-14 08:10:00,
2013-03-14 04:15:00,23.3,18.9,24.29,WSW,248,0.0,0.0,83,0.00,,SKC,0.00,VWS V14.01,2013-03-14 08:15:00,
2013-03-14 04:20:00,23.2,18.8,24.30,WSW,248,0.0,0.0,83,0.00,,SKC,0.00,VWS V14.01,2013-03-14 08:20:00,
2013-03-14 04:25:00,23.1,18.7,24.28,WSW,248,0.0,0.0,83,0.00,,SKC,0.00,VWS V14.01,2013-03-14 08:25:00,
2013-03-14 04:30:00,23.0,18.9,24.29,WSW,248,0.0,0.0,84,0.00,,SKC,0.00,VWS V14.01,2013-03-14 08:30:00,
2013-03-14 04:35:00,23.1,19.0,24.29,WSW,248,0.0,1.0,84,0.00,,SKC,0.00,VWS V14.01,2013-03-14 08:35:00,
2013-03-14 04:40:00,23.1,19.0,24.28,WSW,248,0.0,0.0,84,0.00,,SKC,0.00,VWS V14.01,2013-03-14 08:40:00,
2013-03-14 04:45:00,23.1,19.0,24.28,WSW,248,0.0,1.0,84,0.00,,SKC,0.00,VWS V14.01,2013-03-14 08:45:00,
2013-03-14 04:50:00,23.0,18.9,24.28,WSW,248,0.0,2.0,84,0.00,,SKC,0.00,VWS V14.01,2013-03-14 08:50:00,
2013-03-14 04:55:00,23.1,19.0,24.27,WSW,250,0.0,0.0,84,0.00,,SKC,0.00,VWS V14.01,2013-03-14 08:55:00,
2013-03-14 05:00:00,23.2,19.1,24.28,WSW,250,2.0,3.0,84,0.00,,SKC,0.00,VWS V14.01,2013-03-14 09:00:00,
2013-03-14 05:05:00,23.3,19.2,24.28,WSW,250,0.0,4.0,84,0.00,,SKC,0.00,VWS V14.01,2013-03-14 09:05:00,
2013-03-14 05:10:00,23.3,19.2,24.26,WSW,252,0.0,2.0,84,0.00,,SKC,0.00,VWS V14.01,2013-03-14 09:10:00,
2013-03-14 05:15:00,23.3,19.2,24.28,WSW,252,0.0,0.0,84,0.00,,SKC,0.00,VWS V14.01,2013-03-14 09:15:00,
2013-03-14 05:20:00,23.3,18.9,24.29,WSW,252,0.0,2.0,83,0.00,,SKC,0.00,VWS V14.01,2013-03-14 09:20:00,
2013-03-14 05:25:00,23.1,18.7,24.28,WSW,252,0.0,2.0,83,0.00,,SKC,0.00,VWS V14.01,2013-03-14 09:25:00,
2013-03-14 05:30:00,23.1,18.7,24.28,WSW,250,0.0,1.0,83,0.00,,SKC,0.00,VWS V14.01,2013-03-14 09:30:00,
2013-03-14 05:35:00,23.0,18.6,24.28,WSW,251,0.0,0.0,83,0.00,,SKC,0.00,VWS V14.01,2013-03-14 09:35:00,
2013-03-14 05:40:00,22.9,18.5,24.28,WSW,251,1.0,1.0,83,0.00,,SKC,0.00,VWS V14.01,2013-03-14 09:40:00,
2013-03-14 05:45:00,22.8,18.4,24.30,WSW,251,0.0,0.0,83,0.00,,SKC,0.00,VWS V14.01,2013-03-14 09:45:00,
2013-03-14 05:50:00,22.8,18.4,24.29,WSW,251,0.0,0.0,83,0.00,,SKC,0.00,VWS V14.01,2013-03-14 09:50:00,
2013-03-14 05:55:00,22.7,18.3,24.28,WSW,250,0.0,0.0,83,0.00,,SKC,0.00,VWS V14.01,2013-03-14 09:55:00,
2013-03-14 06:00:00,22.5,18.1,24.29,WSW,251,0.0,1.0,83,0.00,,SKC,0.00,VWS V14.01,2013-03-14 10:00:00,
2013-03-14 06:05:00,22.5,18.1,24.29,WSW,250,0.0,0.0,83,0.00,,SKC,0.00,VWS V14.01,2013-03-14 10:05:00,
2013-03-14 06:09:00,22.4,18.3,24.29,WSW,250,0.0,1.0,84,0.00,,SKC,0.00,VWS V14.01,2013-03-14 10:09:00,
2013-03-14 06:14:00,22.3,18.2,24.29,WSW,245,0.0,0.0,84,0.00,,SKC,0.00,VWS V14.01,2013-03-14 10:14:00,
2013-03-14 06:19:00,22.3,18.2,24.29,WSW,245,0.0,3.0,84,0.00,,SKC,0.00,VWS V14.01,2013-03-14 10:19:00,
2013-03-14 06:24:00,22.2,18.1,24.28,WSW,245,1.0,1.0,84,0.00,,SKC,0.00,VWS V14.01,2013-03-14 10:24:00,
2013-03-14 06:29:00,22.2,18.1,24.28,WSW,245,0.0,0.0,84,0.00,,SKC,0.00,VWS V14.01,2013-03-14 10:29:00,
2013-03-14 06:34:00,22.1,17.7,24.24,WSW,245,0.0,0.0,83,0.00,,SKC,0.00,VWS V14.01,2013-03-14 10:34:00,
2013-03-14 06:39:00,22.1,17.7,24.26,WSW,245,0.0,1.0,83,0.00,,SKC,0.00,VWS V14.01,2013-03-14 10:39:00,
2013-03-14 06:44:00,22.2,17.8,24.29,WSW,245,0.0,1.0,83,0.00,,SKC,0.00,VWS V14.01,2013-03-14 10:44:00,
2013-03-14 06:49:00,22.1,17.7,24.28,WSW,245,0.0,2.0,83,0.00,,SKC,0.00,VWS V14.01,2013-03-14 10:49:00,
2013-03-14 06:54:00,22.2,17.8,24.28,WSW,245,0.0,1.0,83,0.00,,SKC,0.00,VWS V14.01,2013-03-14 10:54:00,
2013-03-14 06:59:00,22.2,17.8,24.26,WSW,245,0.0,0.0,83,0.00,,SKC,0.00,VWS V14.01,2013-03-14 10:59:00,
2013-03-14 07:04:00,22.2,17.8,24.28,WSW,245,0.0,3.0,83,0.00,,SKC,0.00,VWS V14.01,2013-03-14 11:04:00,
2013-03-14 07:09:00,22.2,17.5,24.28,WSW,245,0.0,1.0,82,0.00,,SKC,0.00,VWS V14.01,2013-03-14 11:09:00,
2013-03-14 07:14:00,22.3,17.6,24.30,WSW,245,0.0,0.0,82,0.00,,SKC,0.00,VWS V14.01,2013-03-14 11:14:00,
2013-03-14 07:19:00,22.3,17.6,24.28,WSW,245,0.0,0.0,82,0.00,,SKC,0.00,VWS V14.01,2013-03-14 11:19:00,
2013-03-14 07:24:00,22.3,17.6,24.25,WSW,241,0.0,0.0,82,0.00,,SKC,0.00,VWS V14.01,2013-03-14 11:24:00,
2013-03-14 07:29:00,22.3,17.6,24.25,WSW,241,0.0,0.0,82,0.00,,SKC,0.00,VWS V14.01,2013-03-14 11:29:00,
2013-03-14 07:34:00,22.2,17.5,24.26,WSW,241,0.0,0.0,82,0.00,,SKC,0.00,VWS V14.01,2013-03-14 11:34:00,
2013-03-14 07:39:00,22.2,17.5,24.27,WSW,240,0.0,0.0,82,0.00,,SKC,0.00,VWS V14.01,2013-03-14 11:39:00,
2013-03-14 07:44:00,22.2,17.5,24.27,WSW,241,0.0,0.0,82,0.00,,SKC,0.00,VWS V14.01,2013-03-14 11:44:00,
2013-03-14 07:49:00,22.1,17.7,24.27,WSW,240,0.0,0.0,83,0.00,,SKC,0.00,VWS V14.01,2013-03-14 11:49:00,
2013-03-14 07:54:00,22.2,17.8,24.27,WSW,241,0.0,0.0,83,0.00,,SKC,0.00,VWS V14.01,2013-03-14 11:54:00,
2013-03-14 07:59:00,22.2,17.8,24.26,WSW,240,0.0,0.0,83,0.00,,SKC,0.00,VWS V14.01,2013-03-14 11:59:00,
2013-03-14 08:04:00,22.2,17.8,24.27,WSW,240,0.0,0.0,83,0.00,,SKC,0.00,VWS V14.01,2013-03-14 12:04:00,
2013-03-14 08:09:00,22.4,18.0,24.28,WSW,240,1.0,3.0,83,0.00,,SKC,0.00,VWS V14.01,2013-03-14 12:09:00,
2013-03-14 08:14:00,22.5,18.1,24.29,WSW,240,0.0,1.0,83,0.00,,SKC,0.00,VWS V14.01,2013-03-14 12:14:00,
2013-03-14 08:19:00,22.7,18.3,24.29,WSW,246,0.0,0.0,83,0.00,,SKC,0.00,VWS V14.01,2013-03-14 12:19:00,
2013-03-14 08:24:00,22.9,18.5,24.30,WSW,246,0.0,0.0,83,0.00,,SKC,0.00,VWS V14.01,2013-03-14 12:24:00,
2013-03-14 08:29:00,23.0,18.6,24.29,WSW,246,0.0,3.0,83,0.00,,SKC,0.00,VWS V14.01,2013-03-14 12:29:00,
2013-03-14 08:34:00,23.2,18.5,24.31,WSW,247,0.0,4.0,82,0.00,,SKC,0.00,VWS V14.01,2013-03-14 12:34:00,
2013-03-14 08:39:00,23.4,19.0,24.37,WSW,247,0.0,0.0,83,0.00,,SKC,0.00,VWS V14.01,2013-03-14 12:39:00,
2013-03-14 08:44:00,23.5,19.1,24.31,WSW,245,0.0,2.0,83,0.00,,SKC,0.00,VWS V14.01,2013-03-14 12:44:00,
2013-03-14 08:49:00,23.7,19.0,24.29,WSW,245,0.0,0.0,82,0.00,,SKC,0.00,VWS V14.01,2013-03-14 12:49:00,
2013-03-14 08:54:00,24.1,19.4,24.38,WSW,244,0.0,0.0,82,0.00,,SKC,0.00,VWS V14.01,2013-03-14 12:54:00,
2013-03-14 08:59:00,24.4,19.7,24.30,WSW,244,0.0,0.0,82,0.00,,SKC,0.00,VWS V14.01,2013-03-14 12:59:00,
2013-03-14 09:04:00,24.8,19.8,24.32,West,259,0.0,4.0,81,0.00,,SKC,0.00,VWS V14.01,2013-03-14 13:04:00,
2013-03-14 09:09:00,25.1,19.8,24.32,WSW,250,3.0,4.0,80,0.00,,SKC,0.00,VWS V14.01,2013-03-14 13:09:00,
2013-03-14 09:14:00,25.4,20.1,24.30,WSW,251,3.0,3.0,80,0.00,,SKC,0.00,VWS V14.01,2013-03-14 13:14:00,
2013-03-14 09:19:00,25.7,20.1,24.30,West,281,5.0,5.0,79,0.00,,SKC,0.00,VWS V14.01,2013-03-14 13:19:00,
2013-03-14 09:24:00,25.9,20.3,24.28,WSW,250,2.0,4.0,79,0.00,,SKC,0.00,VWS V14.01,2013-03-14 13:24:00,
2013-03-14 09:29:00,26.2,20.6,24.32,SW,225,3.0,3.0,79,0.00,,SKC,0.00,VWS V14.01,2013-03-14 13:29:00,
2013-03-14 09:34:00,26.6,21.0,24.29,WNW,298,5.0,5.0,79,0.00,,SKC,0.00,VWS V14.01,2013-03-14 13:34:00,
2013-03-14 09:39:00,26.8,20.9,24.26,West,261,7.0,7.0,78,0.00,,SKC,0.00,VWS V14.01,2013-03-14 13:39:00,
2013-03-14 09:44:00,27.0,21.1,24.25,WSW,249,5.0,6.0,78,0.00,,SKC,0.00,VWS V14.01,2013-03-14 13:44:00,
2013-03-14 09:49:00,27.3,21.4,24.26,West,277,3.0,6.0,78,0.00,,SKC,0.00,VWS V14.01,2013-03-14 13:49:00,
2013-03-14 09:54:00,27.6,21.4,24.26,WNW,286,0.0,5.0,77,0.00,,SKC,0.00,VWS V14.01,2013-03-14 13:54:00,
2013-03-14 09:59:00,27.9,21.3,24.33,NW,314,3.0,4.0,76,0.00,,SKC,0.00,VWS V14.01,2013-03-14 13:59:00,
2013-03-14 10:04:00,28.1,21.2,24.33,WSW,252,5.0,5.0,75,0.00,,SKC,0.00,VWS V14.01,2013-03-14 14:04:00,
2013-03-14 10:09:00,28.5,21.6,24.26,WNW,291,0.0,2.0,75,0.00,,SKC,0.00,VWS V14.01,2013-03-14 14:09:00,
2013-03-14 10:14:00,28.8,21.6,24.27,WSW,247,3.0,6.0,74,0.00,,SKC,0.00,VWS V14.01,2013-03-14 14:14:00,
2013-03-14 10:19:00,28.8,21.2,24.29,WSW,244,0.0,5.0,73,0.00,,SKC,0.00,VWS V14.01,2013-03-14 14:19:00,
2013-03-14 10:24:00,29.3,22.1,24.29,WSW,256,3.0,5.0,74,0.00,,SKC,0.00,VWS V14.01,2013-03-14 14:24:00,
2013-03-14 10:29:00,29.5,21.6,24.27,WNW,284,0.0,5.0,72,0.00,,SKC,0.00,VWS V14.01,2013-03-14 14:29:00,
2013-03-14 10:34:00,29.9,21.7,24.28,WNW,302,5.0,6.0,71,0.00,,SKC,0.00,VWS V14.01,2013-03-14 14:34:00,
2013-03-14 10:39:00,30.0,20.4,24.27,West,279,11.0,11.0,67,0.00,,SKC,0.00,VWS V14.01,2013-03-14 14:39:00,
2013-03-14 10:44:00,30.2,20.9,24.27,WSW,245,0.0,6.0,68,0.00,,SKC,0.00,VWS V14.01,2013-03-14 14:44:00,
2013-03-14 10:49:00,30.5,20.1,24.25,WNW,297,3.0,9.0,65,0.00,,SKC,0.00,VWS V14.01,2013-03-14 14:49:00,
2013-03-14 10:54:00,30.5,19.8,24.26,WSW,250,3.0,6.0,64,0.00,,SKC,0.00,VWS V14.01,2013-03-14 14:54:00,
2013-03-14 10:59:00,30.8,20.4,24.24,WNW,287,4.0,5.0,65,0.00,,SKC,0.00,VWS V14.01,2013-03-14 14:59:00,
2013-03-14 11:04:00,31.1,20.7,24.26,WNW,296,2.0,7.0,65,0.00,,SKC,0.00,VWS V14.01,2013-03-14 15:04:00,
2013-03-14 11:09:00,31.3,20.2,24.25,WSW,257,4.0,7.0,63,0.00,,SKC,0.00,VWS V14.01,2013-03-14 15:09:00,
2013-03-14 11:14:00,31.4,19.9,24.25,West,270,3.0,9.0,62,0.00,,SKC,0.00,VWS V14.01,2013-03-14 15:14:00,
2013-03-14 11:19:00,31.5,20.0,24.25,NW,304,0.0,7.0,62,0.00,,SKC,0.00,VWS V14.01,2013-03-14 15:19:00,
2013-03-14 11:24:00,32.1,20.6,24.25,WSW,240,2.0,4.0,62,0.00,,SKC,0.00,VWS V14.01,2013-03-14 15:24:00,
2013-03-14 11:29:00,32.6,20.7,24.26,WSW,249,6.0,6.0,61,0.00,,SKC,0.00,VWS V14.01,2013-03-14 15:29:00,
2013-03-14 11:34:00,32.6,21.0,24.28,WSW,254,5.0,5.0,62,0.00,,SKC,0.00,VWS V14.01,2013-03-14 15:34:00,
2013-03-14 11:39:00,32.8,20.9,24.28,West,262,1.0,4.0,61,0.00,,SKC,0.00,VWS V14.01,2013-03-14 15:39:00,
2013-03-14 11:44:00,33.0,20.2,24.27,WSW,241,2.0,7.0,59,0.00,,SKC,0.00,VWS V14.01,2013-03-14 15:44:00,
2013-03-14 11:49:00,33.2,20.4,24.26,WNW,283,0.0,9.0,59,0.00,,SKC,0.00,VWS V14.01,2013-03-14 15:49:00,
2013-03-14 11:54:00,33.8,21.4,24.26,West,265,2.0,4.0,60,0.00,,SKC,0.00,VWS V14.01,2013-03-14 15:54:00,
2013-03-14 11:59:00,34.0,20.0,24.27,West,265,7.0,7.0,56,0.00,,SKC,0.00,VWS V14.01,2013-03-14 15:59:00,
2013-03-14 12:04:00,33.7,19.3,24.25,WSW,244,7.0,9.0,55,0.00,,SKC,0.00,VWS V14.01,2013-03-14 16:04:00,
2013-03-14 12:09:00,33.8,19.4,24.25,SW,230,1.0,5.0,55,0.00,,SKC,0.00,VWS V14.01,2013-03-14 16:09:00,
2013-03-14 12:14:00,34.0,19.5,24.25,SW,217,1.0,6.0,55,0.00,,SKC,0.00,VWS V14.01,2013-03-14 16:14:00,
2013-03-14 12:19:00,34.0,18.7,24.25,WNW,283,4.0,5.0,53,0.00,,SKC,0.00,VWS V14.01,2013-03-14 16:19:00,
2013-03-14 12:24:00,34.0,19.1,24.25,WNW,283,5.0,7.0,54,0.00,,SKC,0.00,VWS V14.01,2013-03-14 16:24:00,
2013-03-14 12:29:00,34.1,19.6,24.25,WNW,300,1.0,6.0,55,0.00,,SKC,0.00,VWS V14.01,2013-03-14 16:29:00,
2013-03-14 12:34:00,34.1,18.8,24.25,WNW,290,0.0,3.0,53,0.00,,SKC,0.00,VWS V14.01,2013-03-14 16:34:00,
2013-03-14 12:39:00,34.6,19.2,24.25,WSW,240,1.0,5.0,53,0.00,,SKC,0.00,VWS V14.01,2013-03-14 16:39:00,
2013-03-14 12:44:00,34.6,19.2,24.25,West,261,3.0,5.0,53,0.00,,SKC,0.00,VWS V14.01,2013-03-14 16:44:00,
2013-03-14 12:49:00,34.9,19.5,24.25,WNW,282,3.0,6.0,53,0.00,,SKC,0.00,VWS V14.01,2013-03-14 16:49:00,
2013-03-14 12:54:00,35.1,19.7,24.25,WSW,243,3.0,7.0,53,0.00,,SKC,0.00,VWS V14.01,2013-03-14 16:54:00,
2013-03-14 12:59:00,35.2,19.4,24.25,WSW,254,1.0,5.0,52,0.00,,SKC,0.00,VWS V14.01,2013-03-14 16:59:00,
2013-03-14 13:04:00,35.2,19.4,24.25,SW,229,3.0,6.0,52,0.00,,SKC,0.00,VWS V14.01,2013-03-14 17:04:00,
2013-03-14 13:09:00,35.3,19.0,24.25,West,260,5.0,5.0,51,0.00,,SKC,0.00,VWS V14.01,2013-03-14 17:09:00,
2013-03-14 13:14:00,35.5,18.7,24.25,SW,233,0.0,6.0,50,0.00,,SKC,0.00,VWS V14.01,2013-03-14 17:14:00,
2013-03-14 13:19:00,35.9,19.5,24.25,WSW,244,7.0,8.0,51,0.00,,SKC,0.00,VWS V14.01,2013-03-14 17:19:00,
2013-03-14 13:24:00,35.9,19.5,24.25,WNW,297,1.0,7.0,51,0.00,,SKC,0.00,VWS V14.01,2013-03-14 17:24:00,
2013-03-14 13:29:00,36.0,19.6,24.25,North,360,0.0,1.0,51,0.00,,SKC,0.00,VWS V14.01,2013-03-14 17:29:00,
2013-03-14 13:34:00,36.5,21.0,24.25,SSW,202,5.0,5.0,53,0.00,,SKC,0.00,VWS V14.01,2013-03-14 17:34:00,
2013-03-14 13:39:00,36.8,21.7,24.25,West,265,3.0,7.0,54,0.00,,SKC,0.00,VWS V14.01,2013-03-14 17:39:00,
2013-03-14 13:44:00,37.0,21.5,24.25,SSW,209,0.0,3.0,53,0.00,,SKC,0.00,VWS V14.01,2013-03-14 17:44:00,
2013-03-14 13:49:00,36.9,21.4,24.25,SSW,205,3.0,4.0,53,0.00,,SKC,0.00,VWS V14.01,2013-03-14 17:49:00,
2013-03-14 13:54:00,37.1,21.1,24.25,NW,305,2.0,3.0,52,0.00,,SKC,0.00,VWS V14.01,2013-03-14 17:54:00,
2013-03-14 13:59:00,37.2,20.8,24.25,SSW,211,0.0,4.0,51,0.00,,SKC,0.00,VWS V14.01,2013-03-14 17:59:00,
2013-03-14 14:04:00,37.4,21.9,24.25,WSW,248,4.0,8.0,53,0.00,,SKC,0.00,VWS V14.01,2013-03-14 18:04:00,
2013-03-14 14:09:00,37.3,21.8,24.25,WSW,257,4.0,4.0,53,0.00,,SKC,0.00,VWS V14.01,2013-03-14 18:09:00,
2013-03-14 14:14:00,37.5,20.6,24.25,South,191,5.0,12.0,50,0.00,,SKC,0.00,VWS V14.01,2013-03-14 18:14:00,
2013-03-14 14:19:00,37.4,20.9,24.25,SSW,192,2.0,6.0,51,0.00,,SKC,0.00,VWS V14.01,2013-03-14 18:19:00,
2013-03-14 14:24:00,37.7,20.3,24.25,SW,234,3.0,3.0,49,0.00,,SKC,0.00,VWS V14.01,2013-03-14 18:24:00,
2013-03-14 14:29:00,37.8,19.9,24.25,WSW,239,5.0,7.0,48,0.00,,SKC,0.00,VWS V14.01,2013-03-14 18:29:00,
2013-03-14 14:34:00,37.9,19.5,24.25,WSW,252,6.0,6.0,47,0.00,,SKC,0.00,VWS V14.01,2013-03-14 18:34:00,
2013-03-14 14:39:00,38.4,19.9,24.25,West,263,3.0,3.0,47,0.00,,SKC,0.00,VWS V14.01,2013-03-14 18:39:00,
2013-03-14 14:44:00,38.9,17.2,24.25,West,265,3.0,8.0,41,0.00,,SKC,0.00,VWS V14.01,2013-03-14 18:44:00,
2013-03-14 14:49:00,39.0,18.4,24.25,West,275,2.0,8.0,43,0.00,,SKC,0.00,VWS V14.01,2013-03-14 18:49:00,
2013-03-14 14:54:00,38.9,18.3,24.25,West,266,3.0,6.0,43,0.00,,SKC,0.00,VWS V14.01,2013-03-14 18:54:00,
2013-03-14 14:59:00,39.1,20.6,24.25,North,360,4.0,10.0,47,0.00,,SKC,0.00,VWS V14.01,2013-03-14 18:59:00,
2013-03-14 15:04:00,39.7,21.6,24.25,WNW,289,4.0,6.0,48,0.00,,SKC,0.00,VWS V14.01,2013-03-14 19:04:00,
2013-03-14 15:09:00,40.1,19.4,24.25,West,278,3.0,5.0,43,0.00,,SKC,0.00,VWS V14.01,2013-03-14 19:09:00,
2013-03-14 15:14:00,40.0,20.4,24.25,WSW,254,6.0,7.0,45,0.00,,SKC,0.00,VWS V14.01,2013-03-14 19:14:00,
2013-03-14 15:19:00,39.5,18.9,24.25,WSW,245,7.0,12.0,43,0.00,,SKC,0.00,VWS V14.01,2013-03-14 19:19:00,
2013-03-14 15:24:00,39.6,19.0,24.25,WNW,288,0.0,9.0,43,0.00,,SKC,0.00,VWS V14.01,2013-03-14 19:24:00,
2013-03-14 15:29:00,39.8,18.6,24.25,SSW,209,1.0,10.0,42,0.00,,SKC,0.00,VWS V14.01,2013-03-14 19:29:00,
2013-03-14 15:34:00,39.3,17.6,24.25,SW,229,1.0,6.0,41,0.00,,SKC,0.00,VWS V14.01,2013-03-14 19:34:00,
2013-03-14 15:39:00,39.2,16.3,24.25,West,280,4.0,11.0,39,0.00,,SKC,0.00,VWS V14.01,2013-03-14 19:39:00,
2013-03-14 15:44:00,39.1,16.8,24.25,North,360,3.0,6.0,40,0.00,,SKC,0.00,VWS V14.01,2013-03-14 19:44:00,
2013-03-14 15:49:00,39.1,16.8,24.26,WNW,285,2.0,8.0,40,0.00,,SKC,0.00,VWS V14.01,2013-03-14 19:49:00,
2013-03-14 15:54:00,39.7,18.0,24.25,WSW,248,6.0,8.0,41,0.00,,SKC,0.00,VWS V14.01,2013-03-14 19:54:00,
2013-03-14 15:59:00,39.9,18.1,24.25,West,271,8.0,9.0,41,0.00,,SKC,0.00,VWS V14.01,2013-03-14 19:59:00,
2013-03-14 16:04:00,39.5,17.2,24.25,West,267,4.0,11.0,40,0.00,,SKC,0.00,VWS V14.01,2013-03-14 20:04:00,
2013-03-14 16:09:00,40.1,16.5,24.25,West,274,6.0,6.0,38,0.00,,SKC,0.00,VWS V14.01,2013-03-14 20:09:00,
2013-03-14 16:14:00,40.8,17.2,24.25,West,277,5.0,6.0,38,0.00,,SKC,0.00,VWS V14.01,2013-03-14 20:14:00,
2013-03-14 16:19:00,41.1,16.2,24.25,SW,234,4.0,7.0,36,0.00,,SKC,0.00,VWS V14.01,2013-03-14 20:19:00,
2013-03-14 16:24:00,41.3,16.4,24.25,WSW,250,5.0,9.0,36,0.00,,SKC,0.00,VWS V14.01,2013-03-14 20:24:00,
2013-03-14 16:29:00,41.3,15.7,24.25,West,261,4.0,13.0,35,0.00,,SKC,0.00,VWS V14.01,2013-03-14 20:29:00,
2013-03-14 16:34:00,41.2,16.3,24.25,WSW,255,6.0,8.0,36,0.00,,SKC,0.00,VWS V14.01,2013-03-14 20:34:00,
2013-03-14 16:39:00,41.1,16.8,24.25,NW,309,4.0,5.0,37,0.00,,SKC,0.00,VWS V14.01,2013-03-14 20:39:00,
2013-03-14 16:44:00,41.6,17.3,24.24,West,273,5.0,9.0,37,0.00,,SKC,0.00,VWS V14.01,2013-03-14 20:44:00,
2013-03-14 16:49:00,41.4,18.3,24.25,WSW,246,6.0,11.0,39,0.00,,SKC,0.00,VWS V14.01,2013-03-14 20:49:00,
2013-03-14 16:54:00,41.2,17.5,24.25,WSW,257,4.0,7.0,38,0.00,,SKC,0.00,VWS V14.01,2013-03-14 20:54:00,
2013-03-14 16:59:00,41.1,17.4,24.25,WNW,300,4.0,10.0,38,0.00,,SKC,0.00,VWS V14.01,2013-03-14 20:59:00,
2013-03-14 17:04:00,41.3,18.2,24.25,WSW,256,2.0,7.0,39,0.00,,SKC,0.00,VWS V14.01,2013-03-14 21:04:00,
2013-03-14 17:09:00,41.6,18.5,24.25,WSW,253,3.0,5.0,39,0.00,,SKC,0.00,VWS V14.01,2013-03-14 21:09:00,
2013-03-14 17:14:00,42.0,18.9,24.24,WSW,248,2.0,8.0,39,0.00,,SKC,0.00,VWS V14.01,2013-03-14 21:14:00,
2013-03-14 17:19:00,41.5,17.8,24.25,SW,222,4.0,10.0,38,0.00,,SKC,0.00,VWS V14.01,2013-03-14 21:19:00,
2013-03-14 17:24:00,41.3,18.8,24.25,WSW,247,7.0,7.0,40,0.00,,SKC,0.00,VWS V14.01,2013-03-14 21:24:00,
2013-03-14 17:29:00,41.3,18.2,24.25,SW,227,6.0,7.0,39,0.00,,SKC,0.00,VWS V14.01,2013-03-14 21:29:00,
2013-03-14 17:34:00,40.9,17.9,24.25,West,260,4.0,9.0,39,0.00,,SKC,0.00,VWS V14.01,2013-03-14 21:34:00,
2013-03-14 17:39:00,41.1,18.6,24.25,WNW,290,3.0,6.0,40,0.00,,SKC,0.00,VWS V14.01,2013-03-14 21:39:00,
2013-03-14 17:44:00,41.3,19.4,24.25,West,261,4.0,4.0,41,0.00,,SKC,0.00,VWS V14.01,2013-03-14 21:44:00,
2013-03-14 17:49:00,41.2,17.5,24.25,SW,216,0.0,7.0,38,0.00,,SKC,0.00,VWS V14.01,2013-03-14 21:49:00,
2013-03-14 17:54:00,40.9,16.6,24.24,WNW,283,1.0,9.0,37,0.00,,SKC,0.00,VWS V14.01,2013-03-14 21:54:00,
2013-03-14 17:59:00,41.1,17.4,24.25,NW,321,4.0,9.0,38,0.00,,SKC,0.00,VWS V14.01,2013-03-14 21:59:00,
2013-03-14 18:04:00,41.3,17.6,24.26,West,263,3.0,12.0,38,0.00,,SKC,0.00,VWS V14.01,2013-03-14 22:04:00,
2013-03-14 18:09:00,41.6,17.3,24.26,West,267,4.0,8.0,37,0.00,,SKC,0.00,VWS V14.01,2013-03-14 22:09:00,
2013-03-14 18:14:00,41.3,17.0,24.25,West,271,1.0,4.0,37,0.00,,SKC,0.00,VWS V14.01,2013-03-14 22:14:00,
2013-03-14 18:19:00,41.0,16.7,24.27,WSW,245,0.0,3.0,37,0.00,,SKC,0.00,VWS V14.01,2013-03-14 22:19:00,
2013-03-14 18:24:00,40.9,17.3,24.30,WNW,293,4.0,5.0,38,0.00,,SKC,0.00,VWS V14.01,2013-03-14 22:24:00,
2013-03-14 18:29:00,40.7,14.5,24.28,West,276,3.0,5.0,34,0.00,,SKC,0.00,VWS V14.01,2013-03-14 22:29:00,
2013-03-14 18:34:00,40.6,17.0,24.27,WSW,247,5.0,9.0,38,0.00,,SKC,0.00,VWS V14.01,2013-03-14 22:34:00,
2013-03-14 18:39:00,40.7,17.1,24.27,NW,304,3.0,5.0,38,0.00,,SKC,0.00,VWS V14.01,2013-03-14 22:39:00,
2013-03-14 18:44:00,40.5,16.9,24.28,WNW,301,5.0,6.0,38,0.00,,SKC,0.00,VWS V14.01,2013-03-14 22:44:00,
2013-03-14 18:49:00,40.3,17.3,24.29,WSW,257,4.0,6.0,39,0.00,,SKC,0.00,VWS V14.01,2013-03-14 22:49:00,
2013-03-14 18:54:00,40.1,17.7,24.30,West,279,3.0,5.0,40,0.00,,SKC,0.00,VWS V14.01,2013-03-14 22:54:00,
2013-03-14 18:59:00,40.0,17.6,24.30,WNW,303,4.0,5.0,40,0.00,,SKC,0.00,VWS V14.01,2013-03-14 22:59:00,
2013-03-14 19:04:00,39.7,18.5,24.27,WSW,255,5.0,5.0,42,0.00,,SKC,0.00,VWS V14.01,2013-03-14 23:04:00,
2013-03-14 19:09:00,39.6,17.9,24.24,WSW,256,2.0,4.0,41,0.00,,SKC,0.00,VWS V14.01,2013-03-14 23:09:00,
2013-03-14 19:14:00,39.4,18.2,24.27,WSW,256,0.0,1.0,42,0.00,,SKC,0.00,VWS V14.01,2013-03-14 23:14:00,
2013-03-14 19:19:00,39.3,18.7,24.27,WSW,252,0.0,4.0,43,0.00,,SKC,0.00,VWS V14.01,2013-03-14 23:19:00,
2013-03-14 19:24:00,39.1,18.5,24.24,West,277,0.0,2.0,43,0.00,,SKC,0.00,VWS V14.01,2013-03-14 23:24:00,
2013-03-14 19:29:00,38.9,18.3,24.24,West,275,2.0,4.0,43,0.00,,SKC,0.00,VWS V14.01,2013-03-14 23:29:00,
2013-03-14 19:34:00,38.7,18.7,24.25,West,278,0.0,2.0,44,0.00,,SKC,0.00,VWS V14.01,2013-03-14 23:34:00,
2013-03-14 19:39:00,38.6,19.1,24.24,West,269,0.0,1.0,45,0.00,,SKC,0.00,VWS V14.01,2013-03-14 23:39:00,
2013-03-14 19:44:00,38.3,19.4,24.27,West,269,1.0,2.0,46,0.00,,SKC,0.00,VWS V14.01,2013-03-14 23:44:00,
2013-03-14 19:49:00,38.2,19.8,24.25,West,269,0.0,4.0,47,0.00,,SKC,0.00,VWS V14.01,2013-03-14 23:49:00,
2013-03-14 19:54:00,38.1,20.2,24.25,West,269,2.0,2.0,48,0.00,,SKC,0.00,VWS V14.01,2013-03-14 23:54:00,
2013-03-14 19:59:00,38.0,20.1,24.30,West,269,1.0,1.0,48,0.00,,SKC,0.00,VWS V14.01,2013-03-14 23:59:00,
2013-03-14 20:04:00,38.0,19.6,24.30,West,271,2.0,2.0,47,0.00,,SKC,0.00,VWS V14.01,2013-03-15 00:04:00,
2013-03-14 20:09:00,38.0,20.1,24.31,West,271,0.0,0.0,48,0.00,,SKC,0.00,VWS V14.01,2013-03-15 00:09:00,
2013-03-14 20:14:00,38.0,20.1,24.31,West,271,0.0,0.0,48,0.00,,SKC,0.00,VWS V14.01,2013-03-15 00:14:00,
2013-03-14 20:19:00,38.1,20.6,24.28,West,271,0.0,0.0,49,0.00,,SKC,0.00,VWS V14.01,2013-03-15 00:19:00,
2013-03-14 20:24:00,38.1,20.6,24.30,West,271,0.0,0.0,49,0.00,,SKC,0.00,VWS V14.01,2013-03-15 00:24:00,
2013-03-14 20:29:00,38.2,20.7,24.30,West,272,0.0,0.0,49,0.00,,SKC,0.00,VWS V14.01,2013-03-15 00:29:00,
2013-03-14 20:34:00,38.1,21.1,24.29,West,272,0.0,1.0,50,0.00,,SKC,0.00,VWS V14.01,2013-03-15 00:34:00,
2013-03-14 20:39:00,38.0,21.0,24.30,West,271,0.0,3.0,50,0.00,,SKC,0.00,VWS V14.01,2013-03-15 00:39:00,
2013-03-14 20:44:00,38.0,21.5,24.27,West,277,0.0,4.0,51,0.00,,SKC,0.00,VWS V14.01,2013-03-15 00:44:00,
2013-03-14 20:49:00,38.1,22.0,24.30,West,277,2.0,3.0,52,0.00,,SKC,0.00,VWS V14.01,2013-03-15 00:49:00,
2013-03-14 20:54:00,38.2,22.1,24.31,West,279,0.0,0.0,52,0.00,,SKC,0.00,VWS V14.01,2013-03-15 00:54:00,
2013-03-14 20:59:00,38.3,22.7,24.30,West,273,0.0,4.0,53,0.00,,SKC,0.00,VWS V14.01,2013-03-15 00:59:00,
2013-03-14 21:04:00,38.4,22.8,24.31,WNW,292,0.0,0.0,53,0.00,,SKC,0.00,VWS V14.01,2013-03-15 01:04:00,
2013-03-14 21:09:00,38.4,23.2,24.31,WNW,283,3.0,3.0,54,0.00,,SKC,0.00,VWS V14.01,2013-03-15 01:09:00,
2013-03-14 21:14:00,38.4,23.2,24.30,West,271,1.0,5.0,54,0.00,,SKC,0.00,VWS V14.01,2013-03-15 01:14:00,
2013-03-14 21:19:00,38.4,23.2,24.30,WSW,254,1.0,5.0,54,0.00,,SKC,0.00,VWS V14.01,2013-03-15 01:19:00,
2013-03-14 21:24:00,38.4,23.7,24.31,WNW,297,0.0,3.0,55,0.00,,SKC,0.00,VWS V14.01,2013-03-15 01:24:00,
2013-03-14 21:29:00,38.2,23.9,24.30,West,263,3.0,4.0,56,0.00,,SKC,0.00,VWS V14.01,2013-03-15 01:29:00,
2013-03-14 21:34:00,38.1,24.2,24.30,West,264,1.0,5.0,57,0.00,,SKC,0.00,VWS V14.01,2013-03-15 01:34:00,
2013-03-14 21:39:00,37.9,24.0,24.30,WSW,253,2.0,4.0,57,0.00,,SKC,0.00,VWS V14.01,2013-03-15 01:39:00,
2013-03-14 21:44:00,37.8,24.4,24.31,WSW,253,2.0,3.0,58,0.00,,SKC,0.00,VWS V14.01,2013-03-15 01:44:00,
2013-03-14 21:49:00,37.7,24.3,24.30,WSW,252,1.0,3.0,58,0.00,,SKC,0.00,VWS V14.01,2013-03-15 01:49:00,
2013-03-14 21:54:00,37.6,24.6,24.31,West,277,0.0,5.0,59,0.00,,SKC,0.00,VWS V14.01,2013-03-15 01:54:00,
2013-03-14 21:59:00,37.5,24.9,24.30,SW,236,0.0,0.0,60,0.00,,SKC,0.00,VWS V14.01,2013-03-15 01:59:00,
2013-03-14 22:04:00,37.3,24.7,24.30,West,273,2.0,6.0,60,0.00,,SKC,0.00,VWS V14.01,2013-03-15 02:04:00,
2013-03-14 22:09:00,37.1,24.5,24.30,WSW,257,1.0,4.0,60,0.00,,SKC,0.00,VWS V14.01,2013-03-15 02:09:00,
2013-03-14 22:14:00,37.0,24.8,24.30,SW,236,0.0,0.0,61,0.00,,SKC,0.00,VWS V14.01,2013-03-15 02:14:00,
2013-03-14 22:19:00,36.8,24.6,24.30,WSW,244,3.0,3.0,61,0.00,,SKC,0.00,VWS V14.01,2013-03-15 02:19:00,
2013-03-14 22:24:00,36.7,24.9,24.30,WSW,242,0.0,0.0,62,0.00,,SKC,0.00,VWS V14.01,2013-03-15 02:24:00,
2013-03-14 22:29:00,36.6,24.8,24.30,WSW,243,0.0,0.0,62,0.00,,SKC,0.00,VWS V14.01,2013-03-15 02:29:00,
2013-03-14 22:34:00,36.6,25.2,24.30,WSW,242,0.0,0.0,63,0.00,,SKC,0.00,VWS V14.01,2013-03-15 02:34:00,
2013-03-14 22:39:00,36.5,25.1,24.29,WSW,241,0.0,0.0,63,0.00,,SKC,0.00,VWS V14.01,2013-03-15 02:39:00,
2013-03-14 22:44:00,36.4,25.0,24.31,WSW,241,0.0,0.0,63,0.00,,SKC,0.00,VWS V14.01,2013-03-15 02:44:00,
2013-03-14 22:49:00,36.2,25.2,24.31,WSW,242,0.0,0.0,64,0.00,,SKC,0.00,VWS V14.01,2013-03-15 02:49:00,
2013-03-14 22:54:00,36.1,25.1,24.30,WSW,241,1.0,2.0,64,0.00,,SKC,0.00,VWS V14.01,2013-03-15 02:54:00,
2013-03-14 22:59:00,36.1,25.5,24.31,WSW,241,2.0,5.0,65,0.00,,SKC,0.00,VWS V14.01,2013-03-15 02:59:00,
2013-03-14 23:04:00,36.1,25.9,24.30,WSW,245,0.0,0.0,66,0.00,,SKC,0.00,VWS V14.01,2013-03-15 03:04:00,
2013-03-14 23:09:00,36.0,25.8,24.30,WSW,248,0.0,4.0,66,0.00,,SKC,0.00,VWS V14.01,2013-03-15 03:09:00,
2013-03-14 23:14:00,36.0,26.1,24.30,WSW,243,2.0,4.0,67,0.00,,SKC,0.00,VWS V14.01,2013-03-15 03:14:00,
2013-03-14 23:19:00,35.9,26.0,24.30,WSW,238,4.0,4.0,67,0.00,,SKC,0.00,VWS V14.01,2013-03-15 03:19:00,
2013-03-14 23:24:00,35.8,26.3,24.30,SW,236,3.0,9.0,68,0.00,,SKC,0.00,VWS V14.01,2013-03-15 03:24:00,
2013-03-14 23:29:00,35.6,26.5,24.30,WSW,245,3.0,5.0,69,0.00,,SKC,0.00,VWS V14.01,2013-03-15 03:29:00,
2013-03-14 23:34:00,35.4,26.6,24.30,WSW,247,4.0,11.0,70,0.00,,SKC,0.00,VWS V14.01,2013-03-15 03:34:00,
2013-03-14 23:39:00,35.1,26.7,24.30,SW,220,0.0,9.0,71,0.00,,SKC,0.00,VWS V14.01,2013-03-15 03:39:00,
2013-03-14 23:44:00,34.9,27.1,24.30,West,261,4.0,4.0,73,0.00,,SKC,0.00,VWS V14.01,2013-03-15 03:44:00,
2013-03-14 23:49:00,34.6,27.5,24.31,West,265,7.0,7.0,75,0.00,,SKC,0.00,VWS V14.01,2013-03-15 03:49:00,
2013-03-14 23:54:00,34.4,28.0,24.31,WSW,253,1.0,11.0,77,0.00,,SKC,0.00,VWS V14.01,2013-03-15 03:54:00,
2013-03-14 23:59:00,34.1,28.0,24.29,WSW,237,5.0,6.0,78,0.00,,SKC,0.00,VWS V14.01,2013-03-15 03:59:00,